Airfield :
LOGIN :

Register | Disclaimer

   EN    FR    IT 

 










Legend :    VFR   Marginal VFR   IFR   Intensive IFR   Very Intensive IFR
Visi :
Ceiling :
>= 8 km
>= 3000ft
5 to 8 km
1000 to 3000 ft
1500m to 5 km
500 to 1000 ft
800 to 1500m
200 to 500 ft
< 800m
< 200 ft
Symbols :   Thunderstorms  Fog  Heavy snow  Heavy precipitations  Wind > 20 kt
SIGMETs :     Misc.  Thunderstorms  Icing  Turbulence  Mountain Waves  Volcanic Ashes







- Airport Elevation : 453 ft
- IATA code : SBK
- Download approach charts


LFRT - St Brieuc Armor

CURRENT METAR :
  • 251000Z AUTO 33003KT 270V020 9999 BKN007 BKN015 OVC026 17/16 Q1018

EXPIRED METARs :
  • 250930Z AUTO 31004KT 290V350 9000 BKN008 BKN015 OVC024 16/15 Q1018
  • 250900Z AUTO 33004KT 290V360 9999 BKN008 OVC020 16/15 Q1018
  • 250830Z AUTO 31006KT 9999 BKN007 OVC019 16/15 Q1018
  • 250800Z AUTO 30005KT 9000 BKN006 OVC020 16/15 Q1018
  • 250730Z AUTO 32004KT 290V350 9000 SCT005 OVC020 15/15 Q1018

Expired Forecast.
No reported NOTAMs for that airfield.



MET'MAP, your aeronautical weather chart ! - Copyright ORBIFLY December 2007 - Disclaimer

ORBIFLY MET'MAP TEAM :

Programming & Development : Alexandra Zaïnal
Concept & Development : Baudouin d'Aumeries
Co-Development & Prog : Marc-Olivier Méhu
Technical & hardware support : Manuel Goepfert

Contact : metmap@orbifly.com




SOURCES & CREDITS :

   NOAA